Location: Zagreb
(45.8000°N, 16.0000°E)
Time: 14:26:27
(UTC+02:00)

Transit 2A Rocket - Pass Details

Date: 11 August 2022
Orbit: 593 x 907 km, 66.7° (Epoch: 25 September)

Event Time Altitude Azimuth Distance (km) Brightness Sun altitude
Rises 18:00:51 0° 161° (SSE) 3,023 7.9 21.2°
Reaches altitude 10° 18:04:24 10° 135° (SE) 2,049 6.9 20.6°
Maximum altitude 18:06:29 13° 107° (ESE) 1,825 6.5 20.3°
Drops below altitude 10° 18:08:31 10° 80° (E) 1,994 6.7 19.9°
Sets 18:11:52 0° 52° (NE) 2,867 7.5 19.3°
